Zurück zum Katalog

EXPLORER 7

AktivWissenschaftVLEO
NORAD 22·PAYLOAD·🇺🇸 United States

Gestartet Oct 13, 1959 von Cape Canaveral Space Force Station

Loading…

Nächste Überflüge (nächste 24 Stunden)

TLE

AktuellSource: Space-Track

Epoche: Sep 10, 2026, 20:20 UTC

1 00022U 59009A   26253.84774640  .00010859  00000-0  34297-3 0  9996
2 00022  50.2428  35.9433 0074171 111.2636 249.6267 15.30677009813460

Verfolge EXPLORER 7 in Echtzeit mit AllMySat

Download on the App Store